星链-32555 (STARLINK-32555)

导读 | 豆包AI

STARLINK-32555是美国SpaceX公司星链星座的成员卫星,于2024年11月11日发射入轨,属于星链星座扩容组网的一部分。该卫星为低轨通信卫星,配备Ku/Ka波段通信载荷与霍尔推进器,具备自主避撞能力,服务全球高速宽带互联网覆盖,单星设计寿命约5-7年,退役后会主动离轨再入大气层焚毁。

基本信息
目录编号:
61918
目录名称:
STARLINK-32555
国际标识:
2024-207G
轨道中心:
EARTH
卫星名称:
星链-32555
卫星全名:
星链-32555 (STARLINK-32555)
卫星状态:
在轨 (已飞行489 天)
发射日期:
2024-11-11 UTC
国别 :
美国 (US)
星等 :
--
轨道信息
数据来源 国际轨道数据
星历时间: 2026-03-14T20:07:12+0800
21小时前
查看轨道信息
半长轴: 6861.121km
偏心率: 0.0001397
轨道倾角: 42.999°
近地点辐角 252.669°
升交点赤经 258.427°
平近点角 107.401°
近地点: 482.025km
远地点: 483.943km
周期: 94.265分钟
每日圈数: 15.27602
详细信息
固有亮度:
5
最大亮度:
2.5
卫星平台:
Starlink V1.0
覆盖范围:
全球
运营商:
太空探索技术公司
运营商所在国:
美国
制造商(研发单位):
太空探索技术公司
制造商所在国:
美国
使用方式:
暂无
卫星简介
Starlink 计划是 SpaceX 推出的全球卫星互联网项目,通过发射低轨道卫星,为全球尤其是偏远地区提供高速、低延迟的互联网服务。自 2019 年起,Starlink 已部署数千颗卫星,旨在缩小全球数字鸿沟,推动互联网普及。该项目还为军事、航空等行业提供通信支持,带来广泛经济效益。
2D轨道图
3D轨道图
轨道高度分析图
轨道倾角分析图
轨道综合分析图
查看轨道综合分析图